Overview Statistics Trail Chart Weather Telemetry Raw packets
 

This is the latest recevied weather packets stored in our database for station/object VA2RBQ-7. If no packets are shown the sender has not sent any weather packets the latest 10 day(s).

<< 9 10 11 12 13 14 15 >>
Time Temp. Humidity Pressure Rain* Wind** Luminosity Snow
1788493443 8.89° C 72% 1015.1 hPa 4.06 mm - - -
1788493140 8.89° C 73% 1015 hPa 4.06 mm - - -
1788492838 8.89° C 72% 1015.1 hPa 4.06 mm - - -
1788492536 8.89° C 72% 1015 hPa 4.06 mm - - -
1788492232 8.89° C 72% 1015.2 hPa 4.06 mm - - -
1788491930 8.89° C 72% 1015.1 hPa 4.06 mm - - -
1788491628 8.89° C 72% 1015 hPa 3.81 mm - - -
1788491325 8.89° C 72% 1015 hPa 3.81 mm - - -
1788491023 8.89° C 72% 1015.1 hPa 3.81 mm - - -
1788490720 8.89° C 72% 1015.2 hPa 3.81 mm - - -
1788490114 8.89° C 72% 1015.1 hPa 3.81 mm - - -
1788489812 8.89° C 72% 1015.1 hPa 3.81 mm - - -
1788489510 8.89° C 72% 1015.1 hPa 3.56 mm - - -
1788489207 8.89° C 72% 1015.1 hPa 3.56 mm - - -
1788488904 8.89° C 72% 1015.3 hPa 3.56 mm - - -
1788488602 8.89° C 72% 1015.2 hPa 3.56 mm - - -
1788488299 8.89° C 72% 1015.3 hPa 3.56 mm - - -
1788487997 8.89° C 72% 1015.2 hPa 3.56 mm - - -
1788487694 8.89° C 72% 1015.2 hPa 3.3 mm - - -
1788487391 8.89° C 72% 1015.4 hPa 3.3 mm - - -
1788487089 8.89° C 72% 1015.5 hPa 3.3 mm - - -
1788486786 8.89° C 72% 1015.5 hPa 3.05 mm - - -
1788486484 8.89° C 72% 1015.5 hPa 3.05 mm - - -
1788486181 8.89° C 72% 1015.6 hPa 2.79 mm - - -
1788485878 8.89° C 72% 1015.7 hPa 2.29 mm - - -

* Rain since midnight (hover to see other rain measurements)
** Current wind speed in m/s (hover to see current wind gust speed)